Powrót do katalogu

DELTA 1 DEB

AktywnyPO
NORAD 42637·DEBRIS·🇺🇸 United States

Wystrzelony Jun 12, 1975 z Vandenberg Space Force Base

Loading…

Następne Przeloty (najbliższe 24 godziny)

TLE

NieaktualneSource: Space-Track

Epoka: Aug 30, 2026, 21:36 UTC

1 42637U 75052LW  26242.90055932  .00000021  00000-0  15112-3 0  9996
2 42637  99.8554 126.8739 0138810 212.8502 146.3928 13.18211304615066

Śledź DELTA 1 DEB w czasie rzeczywistym z AllMySat

Download on the App Store